This is the latest recevied weather packets stored in our database for station/object K4KMJ. If no packets are shown the sender has not sent any weather packets the latest 10 day(s).
| Time | Temp. | Humidity | Pressure | Rain* | Wind** | Luminosity | Snow |
|---|---|---|---|---|---|---|---|
| 1777762719 | 20.56° C | 99% | 1012.7 hPa | 0 mm | - | 20 W/m² | - |
| 1777762415 | 20.56° C | 99% | 1012.5 hPa | 0 mm | - | 24 W/m² | - |
| 1777762112 | 20.56° C | 99% | 1012.9 hPa | 0 mm | - | 23 W/m² | - |
| 1777761808 | 20.56° C | 99% | 1012.5 hPa | 0 mm | - | 24 W/m² | - |
| 1777761505 | 20.56° C | 99% | 1011.1 hPa | 0 mm | - | 22 W/m² | - |
| 1777761197 | 20.56° C | 99% | 1011.8 hPa | 0 mm | - | 19 W/m² | - |
| 1777760894 | 20.56° C | 99% | 1012.1 hPa | 0.51 mm | - | 24 W/m² | - |
| 1777760586 | 20.56° C | 99% | 1012 hPa | 0.51 mm | - | 27 W/m² | - |
| 1777760281 | 20.56° C | 99% | 1012 hPa | 0.51 mm | - | 33 W/m² | - |
| 1777759137 | 20.56° C | 99% | 1012.2 hPa | 1.78 mm | - | 62 W/m² | - |
| 1777758835 | 20.56° C | 99% | 1012.2 hPa | 1.78 mm | - | 62 W/m² | - |
| 1777758532 | 20.56° C | 99% | 1012.1 hPa | 1.78 mm | - | 66 W/m² | - |
| 1777758228 | 20.56° C | 99% | 1012.3 hPa | 2.29 mm | - | 67 W/m² | - |
| 1777757926 | 20.56° C | 99% | 1012 hPa | 2.29 mm | - | 50 W/m² | - |
| 1777757623 | 20.56° C | 99% | 1012.1 hPa | 2.29 mm | - | 55 W/m² | - |
| 1777757322 | 20.56° C | 99% | 1011.8 hPa | 2.29 mm | - | 60 W/m² | - |
| 1777757020 | 20.56° C | 99% | 1011.7 hPa | 2.29 mm | - | 60 W/m² | - |
| 1777756717 | 20.56° C | 99% | 1011.6 hPa | 3.05 mm | - | 67 W/m² | - |
| 1777756412 | 20.56° C | 99% | 1011.4 hPa | 3.05 mm | - | 88 W/m² | - |
| 1777756110 | 20.56° C | 98% | 1010.9 hPa | 2.29 mm | - | 92 W/m² | - |
| 1777755807 | 20.56° C | 98% | 1011.2 hPa | 3.05 mm | - | 75 W/m² | - |
| 1777755504 | 20.56° C | 98% | 1011.7 hPa | 2.29 mm | - | 63 W/m² | - |
| 1777755200 | 20° C | 98% | 1012.1 hPa | 3.05 mm | - | 33 W/m² | - |
| 1777754897 | 20° C | 97% | 1012.8 hPa | 2.29 mm | - | 24 W/m² | - |
| 1777754594 | 20° C | 97% | 1013.5 hPa | 3.05 mm | - | 17 W/m² | - |
* Rain latest hour (hover to see other rain measurements)
** Current wind speed in m/s (hover to see current wind gust speed)